GW0518 Weather Reports


Display with metric or nautical units.
time (UTC)temp
F
wind
direction
speed
MPH
gust
MPH
rain 1hr
in
rain 24hr
in
rain mn
in
humidity
%
barometer
mb
20260507214737 52 347 3.0 9.0 0.00 0.01 0.00 55 1010.0
20260507214237 52 355 4.0 11.0 0.00 0.01 0.00 56 1010.0
20260507213737 52 11 4.0 11.0 0.00 0.01 0.00 58 1010.0
20260507213236 52 355 4.0 11.0 0.00 0.01 0.00 57 1010.2
20260507212737 52 342 5.0 11.0 0.00 0.01 0.00 57 1010.0
20260507212237 52 294 5.0 11.0 0.00 0.01 0.00 57 1010.0
20260507211736 52 351 5.0 11.0 0.00 0.01 0.00 57 1009.9
20260507211500 52 350 5.0 12.0 0.00 0.01 0.00 56 1009.9
20260507210737 52 9 5.0 12.0 0.00 0.01 0.00 56 1010.0
20260507205958 52 33 5.0 12.0 0.00 0.01 0.00 57 1010.0
20260507205236 52 340 4.0 10.0 0.00 0.01 0.00 56 1010.0
20260507204958 52 5 6.0 13.0 0.00 0.01 0.00 57 1010.0
20260507204232 52 322 7.0 13.0 0.00 0.01 0.00 54 1010.0
20260507203732 52 42 5.0 12.0 0.00 0.01 0.00 55 1009.9
20260507203232 52 17 6.0 14.0 0.00 0.01 0.00 54 1010.0
20260507202732 53 340 5.0 14.0 0.00 0.01 0.00 55 1010.1
20260507202232 53 42 4.0 11.0 0.00 0.01 0.00 55 1010.1
20260507201733 53 5 4.0 11.0 0.00 0.01 0.00 54 1010.1
20260507201233 53 344 5.0 13.0 0.00 0.01 0.00 53 1010.1
20260507200732 53 355 6.0 13.0 0.00 0.01 0.00 53 1010.1
20260507200234 53 342 5.0 13.0 0.00 0.01 0.00 53 1010.1
20260507195733 53 348 5.0 13.0 0.00 0.01 0.00 53 1010.1
20260507195232 53 310 5.0 13.0 0.00 0.01 0.00 56 1010.3
20260507194732 53 333 4.0 9.0 0.00 0.01 0.00 56 1010.3
20260507194452 53 28 4.0 9.0 0.00 0.01 0.00 57 1010.3
20260507193732 53 331 4.0 11.0 0.00 0.01 0.00 57 1010.4
20260507192732 53 323 5.0 10.0 0.00 0.01 0.00 57 1010.5
20260507192456 53 343 5.0 12.0 0.00 0.01 0.00 55 1010.4
20260507191733 53 320 6.0 12.0 0.00 0.01 0.00 55 1010.5
20260507191232 53 355 5.0 12.0 0.00 0.01 0.00 53 1010.5
20260507190732 53 34 4.0 12.0 0.00 0.01 0.00 56 1010.5
20260507190455 53 236 4.0 9.0 0.00 0.01 0.00 52 1010.4
20260507185953 53 333 4.0 9.0 0.00 0.01 0.00 57 1010.5
20260507185232 53 321 4.0 9.0 0.00 0.01 0.00 55 1010.6
20260507184732 53 33 4.0 9.0 0.00 0.01 0.00 54 1010.6
20260507184232 54 293 4.0 8.0 0.00 0.01 0.00 56 1010.6
20260507183732 52 346 5.0 13.0 0.00 0.01 0.00 55 1010.7
20260507183232 52 327 5.0 13.0 0.00 0.01 0.00 56 1010.8
20260507182732 52 306 5.0 12.0 0.00 0.01 0.00 57 1010.8
20260507182232 53 41 5.0 12.0 0.00 0.01 0.00 58 1010.9
20260507181953 53 325 6.0 12.0 0.00 0.01 0.00 56 1010.9
20260507181232 54 317 6.0 11.0 0.00 0.01 0.00 57 1011.0
20260507180733 54 5 5.0 11.0 0.00 0.01 0.00 55 1010.9
20260507180232 53 295 6.0 11.0 0.00 0.01 0.00 56 1010.9
20260507175732 54 312 5.0 13.0 0.00 0.01 0.00 54 1011.0
20260507175232 54 268 4.0 13.0 0.00 0.01 0.00 57 1011.0
20260507174731 52 256 4.0 10.0 0.00 0.01 0.00 57 1010.9
20260507174232 52 263 4.0 10.0 0.00 0.01 0.00 57 1011.1
20260507173732 53 286 3.0 10.0 0.00 0.01 0.00 64 1011.1
20260507173232 52 216 4.0 9.0 0.00 0.01 0.00 63 1011.2
20260507172956 52 348 5.0 10.0 0.00 0.01 0.00 59 1011.3
20260507172232 53 324 5.0 10.0 0.00 0.01 0.00 59 1011.4
20260507171732 53 257 5.0 11.0 0.00 0.01 0.00 61 1011.4
20260507171232 52 345 5.0 11.0 0.00 0.01 0.00 59 1011.4
20260507170732 52 275 4.0 11.0 0.00 0.01 0.00 60 1011.5
20260507165732 51 268 3.0 8.0 0.00 0.01 0.00 64 1011.6
20260507165232 50 248 4.0 11.0 0.00 0.01 0.00 60 1011.6
20260507164731 51 293 5.0 11.0 0.00 0.01 0.00 61 1011.7
20260507164232 52 324 4.0 12.0 0.00 0.01 0.00 62 1011.7
20260507163955 52 221 4.0 12.0 0.00 0.01 0.00 64 1011.9
20260507163232 51 288 5.0 11.0 0.00 0.01 0.00 61 1011.7
20260507162732 51 338 5.0 10.0 0.00 0.01 0.00 65 1011.7
20260507162232 50 342 5.0 10.0 0.00 0.01 0.00 63 1012.0
20260507161959 51 299 4.0 10.0 0.00 0.02 0.00 65 1012.0
20260507160732 49 261 3.0 8.0 0.00 0.02 0.00 66 1012.0
20260507160231 49 253 4.0 8.0 0.00 0.02 0.00 68 1012.1
20260507155733 48 255 3.0 8.0 0.00 0.02 0.00 65 1012.1
20260507155456 49 348 3.0 9.0 0.00 0.02 0.00 65 1012.1
20260507154731 48 355 4.0 9.0 0.00 0.02 0.00 66 1012.2
20260507154232 49 341 4.0 9.0 0.00 0.03 0.00 66 1012.2
20260507153731 49 300 3.0 9.0 0.00 0.03 0.00 68 1012.3
20260507153232 48 350 3.0 6.0 0.00 0.03 0.00 67 1012.4
20260507152731 48 350 3.0 8.0 0.00 0.03 0.00 69 1012.5
20260507152231 48 347 3.0 8.0 0.00 0.03 0.00 66 1012.4
20260507151732 48 244 2.0 7.0 0.00 0.03 0.00 68 1012.5
20260507151231 48 244 3.0 8.0 0.00 0.03 0.00 66 1012.5
20260507150732 48 239 3.0 8.0 0.00 0.03 0.00 68 1012.5
20260507150234 47 305 3.0 7.0 0.00 0.03 0.00 69 1012.5
20260507145732 47 59 4.0 7.0 0.00 0.03 0.00 67 1012.4
20260507145453 47 309 3.0 9.0 0.00 0.03 0.00 68 1012.5
20260507144732 46 355 4.0 9.0 0.00 0.03 0.00 68 1012.6
20260507144453 46 342 3.0 9.0 0.00 0.03 0.00 67 1012.8
20260507143731 47 321 3.0 6.0 0.00 0.03 0.00 67 1012.7
20260507143232 47 326 3.0 10.0 0.00 0.04 0.00 67 1012.8
20260507142954 46 298 3.0 10.0 0.00 0.04 0.00 67 1012.8
20260507142232 47 339 2.0 10.0 0.00 0.04 0.00 66 1012.7
20260507141731 46 308 2.0 6.0 0.00 0.04 0.00 67 1012.8
20260507141453 46 349 3.0 10.0 0.00 0.04 0.00 67 1012.7
20260507140732 46 348 4.0 10.0 0.00 0.05 0.00 67 1012.8
20260507140232 47 300 4.0 9.0 0.00 0.05 0.00 68 1012.8
20260507135731 46 0 4.0 10.0 0.00 0.05 0.00 69 1012.8
20260507135231 46 338 4.0 11.0 0.00 0.06 0.00 67 1013.0
20260507134732 46 9 4.0 11.0 0.00 0.06 0.00 69 1013.1
20260507134231 46 285 3.0 10.0 0.00 0.06 0.00 69 1013.0
20260507133732 46 305 3.0 8.0 0.00 0.06 0.00 69 1013.0
20260507133453 46 304 3.0 8.0 0.00 0.07 0.00 70 1013.1
20260507132731 46 319 3.0 9.0 0.00 0.07 0.00 69 1013.1
20260507132232 46 321 2.0 9.0 0.00 0.07 0.00 69 1013.1
20260507131732 46 292 2.0 8.0 0.00 0.08 0.00 71 1013.0
20260507131231 45 288 3.0 8.0 0.00 0.08 0.00 71 1012.9
20260507130732 45 289 1.0 8.0 0.00 0.08 0.00 72 1012.8
20260507130231 45 288 0.0 7.0 0.00 0.09 0.00 74 1012.8
20260507125732 44 288 2.0 5.0 0.00 0.10 0.00 75 1012.9
20260507125233 44 288 3.0 7.0 0.00 0.11 0.00 77 1012.8
20260507124729 43 288 2.0 7.0 0.00 0.11 0.00 78 1012.9
20260507124230 43 288 2.0 7.0 0.00 0.12 0.00 80 1013.0
20260507123729 43 288 2.0 8.0 0.00 0.13 0.00 82 1013.1
20260507123229 42 288 3.0 8.0 0.00 0.14 0.00 84 1013.0
20260507122954 42 288 2.0 8.0 0.00 0.15 0.00 87 1013.0
20260507122230 41 286 3.0 7.0 0.00 0.16 0.00 89 1013.0
20260507121730 41 287 3.0 8.0 0.00 0.16 0.00 92 1012.9
20260507121230 40 286 3.0 8.0 0.00 0.17 0.00 94 1012.9
20260507120729 40 286 2.0 7.0 0.00 0.17 0.00 95 1013.0
20260507120229 40 285 1.0 2.0 0.00 0.18 0.00 95 1012.9
20260507115728 39 285 2.0 6.0 0.00 0.19 0.00 95 1012.9
20260507115229 39 285 2.0 6.0 0.00 0.19 0.00 95 1012.8
20260507114728 39 288 1.0 4.0 0.00 0.19 0.00 95 1012.8
20260507114230 38 288 1.0 3.0 0.00 0.19 0.00 95 1012.7
20260507113729 38 128 1.0 3.0 0.00 0.19 0.00 95 1012.7
20260507112955 37 128 0.0 2.0 0.00 0.20 0.00 95 1012.7
20260507112459 36 128 0.0 2.0 0.00 0.20 0.00 95 1012.7
20260507111729 35 128 1.0 2.0 0.00 0.20 0.00 94 1012.8
20260507111229 34 128 0.0 2.0 0.00 0.21 0.00 94 1012.8
20260507110729 34 128 0.0 2.0 0.00 0.21 0.00 94 1012.8
20260507110229 34 128 0.0 1.0 0.00 0.22 0.00 94 1012.7
20260507105729 33 128 0.0 1.0 0.00 0.22 0.00 93 1012.6
20260507104730 33 299 0.0 0.0 0.00 0.24 0.00 93 1012.5
20260507104229 33 299 0.0 0.0 0.00 0.24 0.00 93 1012.5
20260507103729 33 299 0.0 1.0 0.00 0.25 0.00 92 1012.4
20260507103229 33 299 0.0 1.0 0.00 0.25 0.00 92 1012.4
20260507102729 33 299 0.0 2.0 0.00 0.26 0.00 92 1012.3
20260507102229 33 299 0.0 2.0 0.00 0.26 0.00 92 1012.4
20260507101729 33 299 0.0 0.0 0.00 0.27 0.00 92 1012.5
20260507101228 33 299 0.0 0.0 0.00 0.27 0.00 92 1012.4
20260507100953 33 299 0.0 0.0 0.00 0.27 0.00 92 1012.3
20260507100227 33 299 0.0 0.0 0.00 0.27 0.00 92 1012.3
20260507095727 34 299 0.0 0.0 0.00 0.28 0.00 92 1012.3
20260507095227 34 299 0.0 0.0 0.00 0.28 0.00 92 1012.4
20260507094728 34 299 0.0 0.0 0.00 0.28 0.00 92 1012.4
20260507094227 34 299 0.0 0.0 0.00 0.28 0.00 92 1012.3
20260507093727 34 299 0.0 0.0 0.00 0.29 0.00 92 1012.4
20260507093227 35 299 0.0 0.0 0.00 0.30 0.00 92 1012.5
20260507092728 35 299 0.0 0.0 0.00 0.31 0.00 92 1012.5
20260507092227 35 299 0.0 0.0 0.00 0.31 0.00 92 1012.5
20260507091954 35 299 0.0 0.0 0.00 0.32 0.00 92 1012.4
20260507091227 35 299 0.0 1.0 0.00 0.32 0.00 92 1012.1
20260507090948 36 299 0.0 1.0 0.00 0.32 0.00 92 1012.0
20260507090227 36 299 0.0 1.0 0.00 0.32 0.00 92 1012.1
20260507085948 36 300 0.0 0.0 0.00 0.33 0.00 92 1012.2
20260507085228 36 300 0.0 0.0 0.00 0.33 0.00 92 1012.5
20260507084953 37 300 0.0 0.0 0.00 0.34 0.00 92 1012.5
20260507084227 37 300 0.0 1.0 0.00 0.35 0.00 92 1012.5
20260507083727 37 300 0.0 1.0 0.00 0.35 0.00 92 1012.4
20260507083445 37 300 0.0 1.0 0.00 0.36 0.00 92 1012.5
20260507082727 37 300 0.0 0.0 0.00 0.36 0.00 92 1012.5
20260507082227 38 300 0.0 0.0 0.00 0.37 0.00 92 1012.5
20260507081727 38 300 0.0 1.0 0.00 0.37 0.00 92 1012.6
20260507081227 38 300 0.0 2.0 0.00 0.38 0.00 92 1012.8
20260507080945 38 300 0.0 2.0 0.00 0.38 0.00 92 1012.7
20260507080227 39 300 0.0 1.0 0.00 0.38 0.00 93 1012.6
20260507075729 39 300 0.0 1.0 0.00 0.39 0.00 93 1012.4
20260507075227 39 300 0.0 0.0 0.00 0.39 0.00 93 1012.4
20260507074727 39 300 0.0 1.0 0.00 0.41 0.00 93 1012.5
20260507074226 39 300 0.0 2.0 0.00 0.41 0.00 93 1012.5
20260507073728 40 300 0.0 4.0 0.00 0.41 0.00 93 1012.4
20260507073227 40 300 0.0 4.0 0.00 0.41 0.00 93 1012.4
20260507072727 40 300 0.0 0.0 0.00 0.41 0.00 93 1012.4
20260507072227 40 300 0.0 0.0 0.00 0.41 0.00 93 1012.4
20260507071727 40 300 0.0 0.0 0.00 0.41 0.00 93 1012.3
20260507071227 40 300 0.0 3.0 0.00 0.41 0.00 93 1012.2
20260507070946 40 300 0.0 3.0 0.00 0.41 0.00 93 1012.2
20260507070227 40 300 0.0 2.0 0.00 0.41 0.00 93 1012.3
20260507065726 40 300 0.0 1.0 0.00 0.41 0.00 94 1012.5
20260507065227 40 300 0.0 2.0 0.00 0.41 0.00 94 1012.2
20260507064726 40 300 0.0 2.0 0.00 0.41 0.00 94 1012.3
20260507064225 41 300 0.0 2.0 0.00 0.41 0.00 94 1012.3
20260507063725 41 300 1.0 3.0 0.00 0.41 0.00 94 1012.4
20260507062725 41 300 1.0 3.0 0.00 0.41 0.00 94 1012.4
20260507062224 41 300 0.0 3.0 0.00 0.42 0.00 94 1012.4
20260507061725 41 300 1.0 4.0 0.00 0.42 0.00 94 1012.4
20260507061224 41 300 1.0 8.0 0.00 0.42 0.00 94 1012.7
20260507060725 41 300 1.0 8.0 0.00 0.42 0.00 94 1012.8
20260507060225 41 292 1.0 4.0 0.00 0.42 0.00 94 1012.7
20260507055725 41 292 1.0 3.0 0.00 0.42 0.00 94 1012.6
20260507055225 41 292 1.0 4.0 0.00 0.42 0.00 94 1012.6
20260507054724 41 292 2.0 5.0 0.00 0.42 0.00 94 1012.9
20260507054226 41 292 1.0 5.0 0.00 0.42 0.00 94 1012.9
20260507053946 41 292 2.0 5.0 0.00 0.42 0.00 94 1012.7
20260507053225 41 292 1.0 7.0 0.00 0.42 0.00 94 1012.6
20260507052725 41 291 1.0 7.0 0.00 0.42 0.00 94 1012.7
20260507052449 41 291 2.0 9.0 0.00 0.42 0.00 94 1012.8
20260507051726 41 291 3.0 9.0 0.00 0.42 0.00 94 1013.0
20260507051225 41 289 3.0 9.0 0.00 0.42 0.00 95 1012.9
20260507050725 42 262 2.0 9.0 0.00 0.42 0.00 95 1012.9
20260507050443 42 295 1.0 7.0 0.00 0.42 0.00 95 1012.7
20260507045725 42 294 2.0 9.0 0.00 0.42 0.00 95 1012.9
20260507045225 42 293 3.0 9.0 0.00 0.42 0.00 95 1012.7
20260507044725 42 288 4.0 10.0 0.00 0.42 0.00 95 1012.6
20260507044224 42 297 3.0 10.0 0.00 0.42 0.00 95 1012.5
20260507043725 42 304 3.0 9.0 0.00 0.42 0.00 95 1012.4
20260507043223 42 304 4.0 9.0 0.00 0.42 0.00 95 1012.5
20260507042722 42 304 4.0 9.0 0.00 0.42 0.00 95 1012.5
20260507042221 42 302 3.0 10.0 0.00 0.42 0.00 95 1012.4
20260507041941 42 304 4.0 10.0 0.00 0.42 0.00 95 1012.4
20260507041439 43 301 4.0 9.0 0.00 0.42 0.00 95 1012.3
20260507040316 43 309 2.0 11.0 0.01 0.42 0.00 95 1012.0
20260507035716 43 296 2.0 5.0 0.01 0.42 0.42 95 1012.1
20260507035217 43 296 2.0 5.0 0.01 0.42 0.42 95 1012.2
20260507034718 44 296 1.0 5.0 0.01 0.42 0.42 95 1012.1
20260507034217 44 296 2.0 7.0 0.01 0.42 0.42 95 1011.9
20260507033716 44 296 2.0 7.0 0.01 0.42 0.42 95 1011.9
20260507033217 44 298 2.0 7.0 0.01 0.42 0.42 95 1012.1
20260507032716 44 298 3.0 7.0 0.01 0.43 0.42 95 1012.0
20260507032217 44 296 3.0 8.0 0.01 0.45 0.42 95 1012.0
20260507031717 44 308 3.0 8.0 0.01 0.47 0.42 95 1012.0
20260507031435 44 309 3.0 8.0 0.01 0.49 0.42 95 1011.7
20260507030716 45 0 3.0 8.0 0.01 0.50 0.42 95 1011.7
20260507030221 45 319 3.0 8.0 0.00 0.50 0.41 95 1011.7
20260507025947 45 301 2.0 5.0 0.00 0.50 0.41 95 1011.7
20260507024716 45 300 1.0 5.0 0.00 0.51 0.41 95 1011.7
20260507023717 45 300 2.0 4.0 0.00 0.54 0.41 95 1011.6
20260507023216 45 300 1.0 4.0 0.00 0.55 0.41 95 1011.6
20260507022717 45 300 0.0 2.0 0.00 0.55 0.41 95 1011.6
20260507022216 45 300 0.0 2.0 0.00 0.56 0.41 95 1011.7
20260507021717 45 300 0.0 2.0 0.00 0.56 0.41 95 1011.9
20260507021216 44 300 1.0 2.0 0.00 0.56 0.41 95 1011.9
20260507020216 44 300 1.0 3.0 0.00 0.57 0.41 95 1012.0
20260507015216 44 300 0.0 1.0 0.00 0.58 0.41 95 1011.7
20260507014716 44 300 0.0 1.0 0.00 0.58 0.41 94 1012.0
20260507014217 44 300 0.0 1.0 0.00 0.59 0.41 94 1012.1
20260507013716 44 300 0.0 1.0 0.00 0.59 0.41 94 1011.9
20260507013216 44 300 0.0 1.0 0.00 0.60 0.41 94 1011.9
20260507012716 44 300 0.0 1.0 0.00 0.61 0.41 94 1011.9
20260507012217 44 300 0.0 1.0 0.00 0.62 0.41 94 1011.7
20260507011716 44 300 0.0 1.0 0.00 0.62 0.41 94 1011.7
20260507011440 44 300 0.0 1.0 0.00 0.62 0.41 94 1011.6
20260507010716 44 300 0.0 2.0 0.00 0.63 0.41 94 1011.4
20260507010216 44 300 0.0 2.0 0.00 0.63 0.41 94 1011.3
20260507005716 44 300 0.0 2.0 0.00 0.63 0.41 94 1011.3
20260507005436 44 300 0.0 2.0 0.00 0.63 0.41 94 1011.3
20260507004716 44 300 0.0 2.0 0.00 0.64 0.41 94 1011.3
20260507004216 44 300 0.0 2.0 0.00 0.64 0.41 94 1011.2
20260507003717 44 300 0.0 1.0 0.00 0.64 0.41 94 1011.2
20260507003217 44 300 0.0 1.0 0.00 0.64 0.41 94 1011.1
20260507002717 44 300 0.0 1.0 0.00 0.64 0.41 94 1011.0
20260507002216 44 300 0.0 3.0 0.00 0.65 0.41 94 1011.0
20260507001716 44 300 1.0 4.0 0.00 0.65 0.41 94 1011.0
20260507001437 45 300 1.0 4.0 0.00 0.65 0.41 94 1010.9
20260507000716 45 301 1.0 4.0 0.00 0.66 0.41 94 1010.9
20260507000216 44 301 0.0 1.0 0.00 0.68 0.41 94 1010.9
20260506235937 45 301 0.0 1.0 0.00 0.68 0.41 94 1010.7
20260506235216 45 301 0.0 3.0 0.00 0.68 0.41 94 1010.7
20260506234939 45 301 1.0 3.0 0.00 0.68 0.41 94 1010.7
20260506234216 45 301 0.0 2.0 0.00 0.68 0.41 94 1010.6
20260506233716 45 301 0.0 3.0 0.00 0.68 0.41 94 1010.6
20260506232716 45 301 1.0 7.0 0.00 0.68 0.41 94 1010.7
20260506232216 45 301 2.0 7.0 0.00 0.68 0.41 94 1010.6
20260506231716 45 321 1.0 4.0 0.00 0.68 0.41 94 1010.7
20260506231216 45 321 1.0 4.0 0.00 0.68 0.41 95 1010.6
20260506230716 45 286 1.0 4.0 0.00 0.68 0.41 95 1010.3
20260506230216 45 286 0.0 2.0 0.00 0.68 0.41 95 1010.1
20260506225716 45 286 1.0 4.0 0.00 0.68 0.41 95 1010.0
20260506225439 45 286 1.0 4.0 0.00 0.68 0.41 95 1010.0
20260506224716 45 286 1.0 2.0 0.00 0.68 0.41 95 1010.0
20260506223716 45 286 1.0 4.0 0.00 0.68 0.41 95 1010.0
20260506223218 45 286 2.0 4.0 0.00 0.68 0.41 95 1010.1
20260506222716 45 286 2.0 4.0 0.00 0.68 0.41 96 1010.2
20260506222216 45 286 1.0 4.0 0.00 0.68 0.41 96 1010.2
20260506221934 45 286 2.0 4.0 0.00 0.68 0.41 96 1010.2
20260506221216 45 286 1.0 3.0 0.00 0.68 0.41 96 1010.2
20260506220715 45 286 1.0 4.0 0.00 0.68 0.41 96 1010.3
20260506220216 45 286 1.0 4.0 0.00 0.68 0.41 96 1010.4
20260506215719 45 286 2.0 6.0 0.00 0.68 0.41 96 1010.4
20260506215216 45 286 3.0 6.0 0.00 0.68 0.41 96 1010.4